Location: Greenhawk Observatory
(37.3417°N, 122.0298°W)
Time: 05:33:22
(UTC-07:00)

Daily predictions for brighter satellites

Satellite Brightness Start Highest point End
(mag) Time Altitude Azimuth Time Altitude Azimuth Time Altitude Azimuth
CZ-2C R/B 3.9 00:06:47 43° NNE 00:06:47 43° NNE 00:10:32 10° N
Cosmos 1867 4.1 00:00:48 10° NNW 00:05:09 56° NW 00:05:09 56° NW
Mayak 1.6 00:03:20 10° NE 00:03:28 11° NE 00:03:28 11° NE
H-2A R/B 4.4 00:05:37 13° WSW 00:06:42 14° W 00:09:23 10° WNW
Cosmos 2227 Rocket 3.0 00:13:08 10° N 00:17:54 42° NE 00:17:54 42° NE
Cosmos 2266 Rocket 4.4 00:22:06 54° NE 00:22:06 54° NE 00:27:14 10° NNE
Cosmos 2219 3.8 00:16:02 10° NNW 00:20:40 51° WNW 00:20:40 51° WNW
CZ-2C R/B 3.3 00:19:54 10° NNE 00:23:35 48° NNE 00:23:35 48° NNE
BREEZE-M DEB (TANK) 4.2 00:11:40 10° WNW 00:27:02 83° NNE 00:27:18 81° ENE
Cosmos 2369 4.5 00:37:11 47° NE 00:37:11 47° NE 00:41:13 10° NNE
ALOS 2 4.4 00:43:07 30° N 00:43:07 30° N 00:45:21 10° N
Cosmos 1980 Rocket 4.1 00:45:27 18° ENE 00:45:27 18° ENE 00:47:31 10° NE
Cosmos 1697 Rocket 3.5 01:12:39 45° NE 01:12:39 45° NE 01:16:31 10° NNE
Cosmos 2297 Rocket 3.0 01:07:48 10° NNW 01:11:50 48° NNW 01:11:50 48° NNW
ATLAS CENTAUR R/B 4.3 01:18:21 10° NW 01:18:21 10° NW 01:18:55 10° NW
SL-16 R/B 4.3 01:26:09 16° E 01:26:09 16° E 01:28:16 10° ENE
Cosmos 2322 Rocket 4.1 01:35:01 20° E 01:35:01 20° E 01:37:50 10° NE
Mayak 1.1 01:38:26 10° N 01:40:07 20° NNW 01:40:07 20° NNW
USA 234 3.4 01:50:01 10° NE 01:55:43 61° E 01:55:43 61° E
Cosmos 1745 Rocket 4.1 02:02:15 73° N 02:02:15 73° N 02:07:46 10° N
Cosmos 2227 Rocket 4.2 01:57:51 10° NW 01:59:42 17° WNW 01:59:42 17° WNW
Cosmos 839 Rocket 4.1 02:04:58 74° NNW 02:04:58 74° NNW 02:10:41 10° NNE
Cosmos 1140 Rocket 4.4 02:02:05 10° NNW 02:05:41 46° NNW 02:05:41 46° NNW
ADEOS Rocket 3.9 02:12:47 10° NNE 02:18:23 36° E 02:18:30 36° E
NOSS 3-1 (A) 3.4 02:20:54 73° NE 02:20:54 73° NE 02:26:37 10° NNE
Cosmos 2263 Rocket 3.9 02:16:19 10° N 02:21:13 29° ENE 02:24:05 19° ESE
CZ-2D R/B 4.1 02:17:46 10° NE 02:21:30 18° E 02:22:07 18° ESE
Cosmos 2360 Rocket 3.8 02:25:56 23° E 02:25:56 23° E 02:30:16 10° NE
Cosmos 1980 Rocket 3.0 02:27:13 41° NW 02:27:13 41° NW 02:32:06 10° N
CZ-4C R/B 2.8 02:28:30 10° NW 02:35:51 81° WSW 02:36:57 68° S
Cosmos 1437 Rocket 4.5 02:38:08 33° NNE 02:38:08 33° NNE 02:40:32 10° NNE
ISS -0.5 02:56:21 10° N 02:58:04 13° NNE 02:59:48 10° NE
Meteor 1-21 4.1 02:54:53 10° NNW 03:00:14 76° WNW 03:00:14 76° WNW
Helios 1A Rocket 4.3 02:57:12 10° N 02:59:42 33° NNW 02:59:42 33° NNW
Meteor 1-4 Rocket 4.5 03:04:31 27° NE 03:04:31 27° NE 03:06:36 10° NNE
NOSS 3-1 (C) 4.4 03:03:50 31° WNW 03:05:08 34° NW 03:10:57 10° NNE
SL-16 R/B 2.4 03:08:00 56° WNW 03:08:09 56° WNW 03:13:45 10° NNE
ADEOS 4.5 03:05:12 10° NNE 03:10:05 39° E 03:11:06 35° SE
Cosmos 1302 Rocket 4.4 03:10:53 50° ESE 03:11:22 52° ESE 03:16:31 10° NNE
Cosmos 1709 Rocket 4.2 03:12:08 50° W 03:12:22 50° W 03:18:18 10° N
Cosmos 1606 Rocket 4.1 03:12:36 52° E 03:12:36 52° E 03:16:46 10° NNE
Meteor 2-9 Rocket 4.2 03:12:51 69° WSW 03:13:12 71° W 03:19:04 10° N
Cosmos 1110 Rocket 4.0 03:15:25 68° WNW 03:15:25 68° WNW 03:20:32 10° NNE
Cosmos 2322 Rocket 2.7 03:16:49 46° WNW 03:17:14 47° WNW 03:22:45 10° N
IRS-1D 3.7 03:13:07 10° NNE 03:18:01 59° E 03:18:33 56° SE
Spot 4 Rocket 4.2 03:14:01 10° NNE 03:19:09 65° ESE 03:19:49 59° SE
SL-16 R/B 2.5 03:25:41 38° SSE 03:28:18 85° ENE 03:34:36 10° NNW
Cosmos 1825 Rocket 3.4 03:33:24 10° N 03:37:40 77° WNW 03:37:40 77° WNW
Cosmos 1758 Rocket 3.5 03:34:44 10° N 03:39:04 77° E 03:39:32 67° SE
USA 234 4.3 03:33:21 10° NNE 03:39:13 37° NNW 03:43:02 20° W
NOSS 2-3 (D) 3.6 03:38:57 70° SSW 03:39:30 86° ESE 03:44:47 10° NNE
Resurs 1-4 Rocket 2.0 03:36:12 10° N 03:41:29 78° WNW 03:42:33 57° SW
IRS-1C 4.4 03:36:51 10° N 03:42:01 51° WNW 03:42:48 47° W
Cosmos 2327 Rocket 4.5 03:40:14 46° SSW 03:42:19 80° W 03:48:46 10° N
ARIANE 5 R/B 2.4 03:40:57 10° N 03:46:05 82° WNW 03:47:18 54° SSW
Cosmos 2184 Rocket 3.9 03:44:55 47° SSW 03:46:42 68° W 03:52:52 10° N
Cosmos 1271 Rocket 3.8 03:46:35 35° SE 03:47:34 42° E 03:51:21 10° NNE
Cosmos 2237 4.2 03:47:02 45° S 03:48:50 77° ESE 03:54:32 10° NNE
Cosmos 1184 Rocket 4.5 03:46:47 10° NNE 03:49:48 32° ENE 03:50:54 25° ESE
Cosmos 2228 3.0 03:50:41 59° SSE 03:51:25 76° E 03:55:42 10° N
UNKNOWN OBJECT B 3.2 03:48:33 10° NNE 03:52:19 57° E 03:53:00 49° SE
Intelsat 5-1 Rocket 4.2 03:55:20 17° SSE 03:55:20 17° SSE 03:59:39 10° ESE
Cosmos 389 Rocket 4.2 03:55:19 23° SE 03:56:35 29° E 03:59:42 10° NNE
CZ-2D R/B 2.5 03:56:30 10° N 04:01:49 52° WNW 04:03:26 39° WSW
ADEOS Rocket 4.0 03:58:29 10° N 04:03:43 29° WNW 04:05:27 25° W
Cosmos 2263 Rocket 2.7 03:59:58 10° NW 04:05:10 37° WSW 04:05:41 37° WSW
ATLAS 2AS CENTAUR R/B 3.0 04:01:46 33° SW 04:05:43 86° WNW 04:13:54 10° NNE
Cosmos 44 2.9 04:03:28 10° NW 04:07:51 68° WSW 04:10:29 24° SSE
Aureole 2 Rocket 4.0 04:06:58 24° SSE 04:08:55 39° ESE 04:12:45 10° NE
Cosmos 2360 Rocket 2.8 04:07:42 33° WSW 04:09:34 43° WNW 04:14:57 10° N
OAO 3 Rocket 3.2 04:10:18 43° WSW 04:11:43 65° S 04:16:34 10° E
Cosmos 2058 Rocket 3.3 04:10:45 44° SW 04:11:43 54° W 04:16:09 10° N
COSMOS 2428 2.7 04:09:40 33° SSW 04:12:25 86° ESE 04:18:11 10° NNE
DELTA 2 R/B (1) 3.5 04:10:46 32° WSW 04:13:29 87° NNW 04:19:05 10° ENE
Cosmos 2219 Rocket 2.8 04:10:11 21° S 04:13:49 51° ESE 04:19:18 10° NNE
Intercosmos 24 4.1 04:13:16 32° SSE 04:14:55 68° E 04:19:31 10° NNE
Cosmos 1953 Rocket 4.1 04:11:14 10° NNW 04:15:26 40° W 04:16:00 38° WSW
SEDSat Delta rocket 4.1 04:16:56 25° SSE 04:16:58 25° SSE 04:20:27 10° ESE
Cosmos 2237 Rocket 3.8 04:12:20 10° SSE 04:17:03 28° ESE 04:21:47 10° NE
Cosmos 1486 Rocket 4.1 04:13:50 10° NNW 04:19:00 54° WSW 04:21:56 25° S
Nadezhda 3 Rocket 3.9 04:13:03 10° N 04:19:19 84° W 04:25:17 12° S
MOZ.5/SAFIR/RUBIN 5/SL-8 3.7 04:18:32 27° S 04:21:01 66° WSW 04:25:39 10° NNW
BREEZE-M DEB (TANK) 4.0 04:19:29 33° SSW 04:21:19 62° SE 04:33:13 10° NE
Cosmos 962 Rocket 4.4 04:18:43 20° S 04:23:05 90° SSW 04:29:14 10° N
Cosmos 1812 Rocket 4.1 04:20:51 17° SSE 04:24:03 55° E 04:28:19 10° NNE
Cosmos 1544 3.9 04:21:46 19° SSE 04:24:07 48° E 04:27:42 10° NNE
MOS 1 Rocket 3.7 04:21:05 10° N 04:25:18 40° WNW 04:26:36 31° WSW
Cosmos 972 Rocket 3.9 04:23:15 32° SW 04:25:24 65° WNW 04:30:19 10° N
Cosmos 1844 Rocket 3.1 04:20:19 10° NNW 04:25:58 65° ENE 04:31:35 10° SSE
Okean O Rocket 3.4 04:25:57 10° NE 04:29:53 30° E 04:33:47 10° SSE
Cosmos 2333 Rocket 2.7 04:27:03 16° S 04:31:29 58° ESE 04:37:04 10° NNE
Cosmos 1354 Rocket 4.0 04:26:16 10° NNW 04:31:35 84° WSW 04:36:54 10° SSE
SeaSat 1 3.9 04:27:54 10° SE 04:32:28 39° ENE 04:37:03 10° N
Cosmos 1707 3.5 04:31:19 10° NNW 04:34:47 32° W 04:35:23 30° WSW
Meteor 2-5 Rocket 3.9 04:29:26 10° NNW 04:34:57 55° W 04:39:37 15° SSW
ISS -3.8 04:31:44 10° NW 04:35:00 79° NE 04:38:16 10° SE
Cosmos 1766 3.1 04:33:35 27° SSW 04:35:36 77° W 04:39:32 10° N
USA 161 1.9 04:33:19 15° SSE 04:35:45 66° ENE 04:38:42 10° N
Cosmos 2154 Rocket 4.4 04:37:09 22° SW 04:40:56 47° W 04:47:00 10° N
ATLAS 3B R/B 3.0 04:34:28 10° NNW 04:41:09 68° NE 04:47:35 10° SE
Meteor 1-24 Rocket 3.6 04:37:34 10° NNW 04:42:59 78° W 04:48:33 10° S
Cosmos 1378 4.0 04:40:48 10° NNW 04:44:06 30° W 04:45:00 26° WSW
Cosmos 44 Rocket 4.3 04:45:59 10° WNW 04:49:42 23° WSW 04:50:59 20° SW
Cosmos 2278 Rocket 3.7 04:45:00 10° N 04:50:19 40° ENE 04:55:36 10° SE
NOSS 0 Rocket 4.1 04:45:23 12° SSW 04:51:05 72° ESE 04:57:17 10° NNE
BREEZE M DEB (TANK) 2.9 04:50:15 10° WNW 04:52:57 63° SW 04:59:37 10° SE
OPS 6432 4.3 04:52:01 22° SW 04:54:16 82° WNW 04:57:25 10° NNE
Cosmos 968 Rocket 4.2 04:53:07 10° N 04:58:13 56° ENE 05:03:14 10° SSE
Cosmos 2341 Rocket 4.4 04:55:15 15° SSW 05:00:20 46° W 05:06:28 10° N
MOS 1-B 4.4 04:55:13 10° N 05:00:58 67° WNW 05:06:43 10° SSW
Cosmos 1607 4.1 04:55:37 10° NW 05:01:52 53° WSW 05:08:05 10° S
USA 238 DEB 4.0 04:55:40 10° NNW 05:02:48 78° ENE 05:09:58 10° SE
USA 238 4.0 04:55:47 10° NNW 05:02:55 77° ENE 05:10:04 10° SE
Cosmos 2366 rocket 4.0 04:57:13 10° S 05:03:21 85° E 05:09:35 10° N
SL-16 R/B 4.0 04:58:38 10° SSE 05:03:25 29° ESE 05:08:13 10° NE
ERBS 3.0 05:04:13 14° SSW 05:07:01 50° SE 05:10:22 10° NE
Cosmos 1674 3.6 05:03:32 10° N 05:07:17 51° E 05:11:03 10° SSE
DELTA 2 R/B(2) 2.8 05:07:03 30° WSW 05:07:43 68° SSE 05:09:46 10° ENE
Cosmos 1340 Rocket 3.7 05:05:48 10° NNW 05:09:12 28° W 05:12:16 12° SSW
Cosmos 1805 3.5 05:07:36 12° SSW 05:11:05 50° W 05:14:54 10° N
Landsat 4 4.0 05:07:59 10° SSE 05:11:41 71° ENE 05:15:25 10° N
Cosmos 1356 Rocket 3.2 05:07:58 10° NNW 05:12:00 73° W 05:15:57 10° S
SL-16 R/B 4.2 05:10:47 11° WSW 05:12:35 13° W 05:15:13 10° WNW
Cosmos 1844 3.7 05:08:34 10° NNW 05:14:07 65° WSW 05:19:42 10° S
ADEOS II 2.3 05:15:29 10° N 05:20:37 55° WNW 05:25:43 10° SSW
PSLV R/B 3.6 05:17:28 10° N 05:21:50 67° WNW 05:26:11 10° SSW
Cosmos 2218 Rocket 4.1 05:16:24 10° SSW 05:22:33 60° W 05:28:49 10° N
Cosmos 864 Rocket 4.5 05:16:32 10° SSW 05:22:40 71° W 05:28:48 10° N
Meteor 2-15 Rocket 4.5 05:19:53 10° N 05:26:04 81° W 05:32:11 10° S
Lacrosse 5 rocket 2.5 05:24:20 10° NNW 05:28:18 49° NE 05:32:29 10° ESE
Cosmos 1758 3.9 05:27:22 10° SSW 05:31:08 40° W 05:34:57 10° N
Meteor 1-21 Rocket 4.3 05:27:54 10° N 05:33:41 80° W 05:39:32 10° S
Abrixas rocket 2.3 05:30:27 10° SW 05:33:45 77° SE 05:37:04 10° ENE
ATLAS CENTAUR R/B 3.2 05:30:32 10° NNW 05:34:29 32° NNE 05:36:35 10° ESE
Geosat 4.0 05:29:57 10° NNE 05:34:59 80° WNW 05:40:00 10° SSW
Cosmos 1953 3.0 05:34:52 10° SSW 05:38:38 38° W 05:42:24 10° N
CZ-4B R/B 3.7 05:36:49 10° N 05:40:16 32° WNW 05:43:51 10° SW
